Regional Weather Roundup
Issued by NWS

Home | Current Version | Previous Version | Graphics & Text | Print | Product List | Glossary On
Versions: 1 2 3 4 5 6 7 8 9 10 11 12 13 14 15 16 17 18 19 20 21 22 23 24 25 26 27 28 29 30 31 32 33 34 35 36 37 38 39 40 41 42 43 44 45 46 47 48 49 50
000
ASUS45 KSLC 230210
RWRUT

UTAH REGIONAL WEATHER ROUNDUP
NATIONAL WEATHER SERVICE SALT LAKE CITY UT
800 PM MDT TUE MAY 22 2018

UTZ001>011-023>025-230300-

NORTHERN UTAH

CITY           SKY/WX    TMP DP  RH WIND       PRES   REMARKS
BRIGHAM CITY   MOCLDY    67  45  45 S8        29.91R
HILL AFB       MOCLDY    61  45  56 SW13      29.94R
LOGAN          MOCLDY    65  43  44 S7        29.89R
OGDEN          MOCLDY    62  45  53 SW16G24   29.92R
SALT LAKE CITY TSTM      66  40  38 S23G35    29.93R
TOOELE VALLEY  LGT RAIN  54  46  76 E9        29.95F
WENDOVER       MOCLDY    66  43  43 SE7       29.89S
HEBER CITY     LGT RAIN  52  43  71 SW8       29.97S
WEST JORDAN    CLOUDY    54  49  82 SW14G33   29.98R

$$

UTZ011>015-024>027-230300-

CENTRAL/NORTHEAST UTAH

CITY           SKY/WX    TMP DP  RH WIND       PRES   REMARKS
PROVO AIRPORT  CLOUDY    61  46  57 NE9       29.96S
MOAB/CANYONLAN MOCLDY    69  41  36 NE18      29.86R
DELTA          CLOUDY    61  37  41 E3        29.95S
PRICE          MOCLDY    67  25  20 CALM      29.94R
ROOSEVELT      RAIN      61  39  44 E12G24    29.98F
VERNAL         CLOUDY    59  45  59 NW7       29.99R

$$

UTZ013>016-019>022-027-230300-

SOUTHERN UTAH

CITY           SKY/WX    TMP DP  RH WIND       PRES   REMARKS
BRYCE CANYON   CLOUDY    54  34  46 NE10      30.07R
CEDAR CITY     MOCLDY    62  35  36 SW6       29.95R
MILFORD        CLOUDY    55  50  83 N13       29.95R
ST GEORGE      CLOUDY    79  37  22 SW3       29.82R
HANKSVILLE     MOCLDY    73  25  16 NW9       29.85R
BLANDING         N/A     69  20  15 S6        29.98S

$$

REGIONAL REPORTS     COLORADO/ARIZONA

CITY           SKY/WX    TMP DP  RH WIND       PRES   REMARKS
CRAIG, CO      CLOUDY    51  46  83 E6        30.07F
GRAND JUNCTION CLOUDY    62  50  64 NE5       29.95S
RIFLE, CO      MOCLDY    58  41  53 S3        30.02S
MONTROSE, CO   MOCLDY    56  44  64 SW6       30.01R
CORTEZ, CO     PTCLDY    67  29  24 S5        29.94R
COLORADO CITY    N/A     64  39  39 E6        29.98R
PAGE, AZ       MOCLDY    72  30  21 W9G21     29.87R
GRAND CANYON   CLEAR     60  31  33 VRB7      30.02R
KINGMAN, AZ      N/A     77  34  21 SW15      29.85R
FLAGSTAFF, AZ  CLEAR     59  19  21 SW13      30.05R

$$

REGIONAL REPORTS    NEVADA/IDAHO/WYOMING

CITY           SKY/WX    TMP DP  RH WIND       PRES   REMARKS
LAS VEGAS, NV  MOCLDY    83  35  18 N8        29.74R
ELY, NY        PTCLDY    56  39  53 S12       29.98R
ELKO, NV       MOCLDY    58  46  64 W7        29.92F
POCATELLO, ID  MOCLDY    60  49  66 W18       29.93R THUNDER
BURLEY, ID     CLOUDY    63  49  60 NW5       29.90R
FORT BRIDGER,  CLOUDY    53  44  70 SE8       30.06S
EVANSTON, WY   CLOUDY    56  41  57 N5        30.03R
ROCK SPRINGS,  CLOUDY    48  43  82 NW6       30.05F
KEMMERER, WY   CLOUDY    54  41  62 E6        30.04S

$$



USA.gov is the U.S. government's official web portal to all federal, state and local government web resources and services.